星链-1265 (STARLINK-1265 )

导读 | 豆包AI

STARLINK-1265是美国SpaceX公司星链星座中的一颗卫星,于2020年3月18日发射升空,属于星链项目早期部署的卫星之一,旨在为全球提供高速低延迟互联网覆盖。它运行在近地轨道,依托SpaceX的可重复使用火箭技术完成部署,是星链全球通信网络构建的组成部分,助力拓展卫星互联网的覆盖范围与服务能力。

基本信息
目录编号:
45406
目录名称:
STARLINK-1265
国际标识:
2020-019AY
轨道中心:
EARTH
卫星名称:
星链-1265
卫星全名:
星链-1265 (STARLINK-1265 )
卫星状态:
在轨 (已飞行2187 天)
发射日期:
2020-03-18 UTC
国别 :
美国 (US)
星等 :
--
轨道信息
数据来源 国际轨道数据
星历时间: 2026-03-13T19:44:22+0800
18小时前
查看轨道信息
半长轴: 6853.332km
偏心率: 0.0001231
轨道倾角: 53.159°
近地点辐角 90.566°
升交点赤经 111.699°
平近点角 269.549°
近地点: 474.351km
远地点: 476.039km
周期: 94.105分钟
每日圈数: 15.302069
详细信息
固有亮度:
5
最大亮度:
2.5
卫星平台:
Starlink V1.0
覆盖范围:
全球
运营商:
太空探索技术公司
运营商所在国:
美国
制造商(研发单位):
太空探索技术公司
制造商所在国:
美国
使用方式:
暂无
卫星简介
星链(Starlink)计划是由太空探索技术公司(SpaceX)提出的一个巨型低轨卫星互联网星座项目,计划在2019年至2024年间在太空搭建由约1.2万颗卫星组成的“星链”网络,其中1584颗将部署在地球上空550千米处的近地轨道,并从2020年开始工作。该卫星仍在工作。
2D轨道图
3D轨道图
轨道高度分析图
轨道倾角分析图
轨道综合分析图
查看轨道综合分析图